Location: Hutchins
(32.6493°N, 96.7131°W)
Time: 07:00:56
(UTC+00:00)

Daily predictions for brighter satellites

Satellite Brightness Start Highest point End
(mag) Time Altitude Azimuth Time Altitude Azimuth Time Altitude Azimuth
Helios 1A Rocket 2.9 12:02:07 10° SSE 12:05:24 60° ENE 12:08:41 10° N
Cosmos 2322 Rocket 2.1 12:03:51 11° NNW 12:09:17 73° WSW 12:14:53 10° SSE
Cosmos 1484 Rocket 2.4 12:07:29 10° NNE 12:10:51 83° ESE 12:14:10 10° S
BREEZE M DEB (TANK) 3.9 12:19:32 11° NNW 12:19:32 11° NNW 12:20:08 10° N
Cosmos 1602 Rocket 3.5 12:15:35 10° S 12:19:59 77° W 12:24:27 10° N
IRS-1D 4.4 12:16:22 10° NNW 12:20:35 27° WNW 12:24:52 10° SW
Cosmos 1812 Rocket 4.2 12:18:10 10° N 12:22:26 57° E 12:26:43 10° SSE
Cosmos 2221 2.9 12:21:05 10° N 12:25:11 64° E 12:29:17 10° SSE
Cosmos 1437 Rocket 3.6 12:25:09 10° N 12:28:29 45° E 12:31:52 10° SSE
IRIS 3.8 12:27:34 10° WSW 12:30:31 90° NNW 12:33:28 10° ENE
Okean 1-7 Rocket 3.6 12:27:13 10° S 12:31:42 87° WNW 12:36:11 10° N
ATLAS 2AS CENTAUR R/B 3.3 12:26:30 10° WSW 12:32:56 36° NW 12:39:15 10° NNE
Cosmos 2285 Rocket 4.1 12:26:46 10° NNW 12:33:05 64° WSW 12:39:24 10° S
Cosmos 2333 4.3 12:28:57 10° NNW 12:34:35 63° WSW 12:40:08 10° S
OAO 2 Rocket 3.5 12:31:15 13° WNW 12:35:52 69° N 12:40:59 10° E
SL-4 R/B 2.1 12:33:59 10° NW 12:37:03 46° NE 12:40:05 10° ESE
Cosmos 2058 Rocket 4.4 12:35:35 10° NW 12:38:38 19° W 12:41:39 10° SW
SL-16 R/B 3.6 12:36:15 11° WNW 12:39:44 19° W 12:43:34 10° SW
Meteor 2-6 Rocket 4.5 12:35:01 10° NNW 12:40:48 55° W 12:46:29 10° S
IGS 5A 3.7 12:38:34 10° N 12:42:24 44° WNW 12:46:11 10° SSW
Cosmos 1743 3.6 12:40:53 10° SW 12:43:18 19° WNW 12:45:44 10° NNW
ARIANE 5 R/B 3.5 12:38:20 10° NNE 12:43:27 54° E 12:48:30 10° S
Cosmos 192 4.3 12:41:53 10° NNW 12:46:47 76° WSW 12:51:38 10° S
CORIOLIS 4.2 12:42:15 10° NNE 12:47:41 89° ESE 12:53:06 10° SSW
OAO 3 Copernicus 4.3 12:42:52 10° WNW 12:47:55 86° SSW 12:52:55 10° ESE
COSMO-SKYMED 1 3.4 12:44:28 10° SSW 12:47:59 27° W 12:51:30 10° NW
KORONAS-FOTON 3.5 12:45:24 10° N 12:48:47 84° E 12:52:09 10° S
Aurora 2 Rocket 4.5 12:44:54 10° SW 12:50:09 31° S 12:54:09 10° ESE
COSMOS 2428 4.0 12:46:49 10° N 12:52:11 41° ENE 12:57:31 10° SE
Cosmos 1825 Rocket 3.5 12:48:01 10° SSW 12:52:24 70° W 12:56:48 10° N
Centaur D-1AR AC-48 3.9 12:45:47 10° WSW 12:53:59 27° SSW 12:57:33 10° SE
Cosmos 1076 Rocket 3.8 12:50:40 10° S 12:54:50 74° E 12:59:03 10° N
S3M 4.0 12:50:07 10° N 12:56:17 86° W 13:02:22 10° S
Cosmos 1655 Rocket 4.3 12:50:09 10° S 12:56:30 80° E 13:02:49 10° N
Cosmos 2084 Rocket 3.5 23:40:13 10° NNW 23:44:26 84° WSW 23:48:36 10° SSE
GEOS 3 Rocket 4.1 23:41:00 10° NNE 23:46:20 67° NW 23:51:37 10° SW
SAR-Lupe-4 4.4 23:43:36 10° SE 23:46:39 28° ENE 23:49:44 10° NNE
Aureole 1 Rocket 3.2 23:44:52 10° SSW 23:49:00 89° NNW 23:54:17 10° NNE
Cosmos 1726 Rocket 3.8 23:47:34 10° S 23:52:12 81° W 23:56:49 10° N
Atlas Centaur 2 3.4 23:52:12 10° S 23:53:42 12° SSE 23:55:11 10° SE
ARIANE 5 R/B 2.7 23:48:53 10° SE 23:53:43 48° ENE 23:58:36 10° N
